This demonstration page uses our WeatherBlox Daily Observations layout. Learn more.

Left ArrowRight Arrow

41.55636, -103.73856

Hourly Observations for December 7, 2020

Temp ( °F °C ) Dew Point ( °F °C ) Humidity (%) Winds ( mph kmh ) Pressure ( in mb ) Visibility ( mi km ) Precip ( " mm )
12:58 am 00:58 Clear 33 0.6 9 -12.6 37 37 W 6 9 30.29 1026 10 16 0.00 0.00
1:58 am 01:58 Clear 28 -2.3 10 -12.2 47 47 WSW 10 17 30.32 1027 10 16 0.00 0.00
2:58 am 02:58 Clear 32 -0.2 10 -12.1 41 41 W 9 15 30.32 1027 10 16 0.00 0.00
3:58 am 03:58 Clear 29 -1.6 10 -12.2 45 45 W 7 11 30.35 1028 10 16 0.00 0.00
4:58 am 04:58 Clear 32 0 10 -12.4 39 39 W 9 15 30.38 1029 10 16 0.00 0.00
5:58 am 05:58 Clear 29 -1.8 9 -12.8 43 43 WSW 8 13 30.41 1030 10 16 0.00 0.00
6:58 am 06:58 Clear 33 0.6 8 -13.3 35 35 W 7 11 30.40 1029 10 16 0.00 0.00
7:58 am 07:58 Sunny 31 -0.7 9 -12.8 40 40 WNW 5 7 30.42 1030 10 16 0.00 0.00
8:58 am 08:58 Sunny 37 2.5 12 -11.3 36 36 WNW 5 7 30.39 1029 10 16 0.00 0.00
9:58 am 09:58 Sunny 45 7.4 9 -12.7 23 23 NW 12 19 30.37 1029 10 16 0.00 0.00
10:58 am 10:58 Sunny 50 9.8 10 -12.5 20 20 NW 12 19 30.35 1028 10 16 0.00 0.00
11:58 am 11:58 Sunny 54 12.4 7 -14.1 14 14 NW 20 31 30.33 1027 10 16 0.00 0.00
12:59 pm 12:59 Sunny 56 13.2 7 -14.1 14 14 NW 20 31 30.31 1026 10 16 0.00 0.00
1:58 pm 13:58 Sunny 57 13.9 6 -14.7 12 12 NW 18 30 30.30 1026 10 16 0.00 0.00
2:58 pm 14:58 Sunny 56 13.4 2 -16.4 11 11 NW 17 28 30.27 1025 10 16 0.00 0.00
3:58 pm 15:58 Sunny 51 10.8 2 -16.9 13 13 WNW 12 19 30.28 1026 10 16 0.00 0.00
4:58 pm 16:58 Clear 41 4.8 2 -16.6 20 20 SW 7 11 30.30 1026 10 16 0.00 0.00
5:58 pm 17:58 Clear 38 3.5 4 -15.7 23 23 SW 9 15 30.33 1027 10 16 0.00 0.00
6:58 pm 18:58 Clear 34 1.3 3 -16.2 26 26 WSW 9 15 30.33 1027 10 16 0.00 0.00
7:58 pm 19:58 Clear 35 1.7 2 -16.9 24 24 WSW 10 17 30.36 1028 10 16 0.00 0.00
8:58 pm 20:58 Clear 35 1.7 3 -16.2 25 25 WSW 8 13 30.34 1027 10 16 0.00 0.00
9:58 pm 21:58 Clear 35 1.9 2 -16.6 24 24 WSW 7 11 30.31 1027 10 16 0.00 0.00
10:58 pm 22:58 Clear 36 2.3 2 -16.4 24 24 W 5 7 30.32 1027 10 16 0.00 0.00
11:58 pm 23:58 Clear 31 -0.5 3 -16.2 30 30 WSW 9 15 30.32 1027 10 16 0.00 0.00

Powered by AerisWeather